Location: Peebles
(55.6412°N, 3.1714°W)
Time: 18:28:18
(UTC+01:00)

Envisat - Pass Details

Date: 02 March 2024
Orbit: 762 x 764 km, 98.3° (Epoch: 20 April)

Event Time Altitude Azimuth Distance (km) Brightness Sun altitude
Rises 06:19:10 0° 9° (N) 3,246 6.3 -6.6°
Reaches altitude 10° 06:22:45 10° 343° (NNW) 2,315 5.3 -6.1°
Maximum altitude 06:24:58 13° 317° (NW) 2,110 4.9 -5.7°
Drops below altitude 10° 06:27:12 10° 290° (WNW) 2,309 4.9 -5.4°
Enters shadow 06:28:40 - 277° (W) 2,628 5.1 -5.2°
